Simultaneous Nadir Overpasses (SNOs) Predictions

Prediction of SNOs between GOES-16 and NOAA-20 Satellite Orbit:

Table of predicted SNOs for the next 14.0 days since TLE Epoch: 7/23/2021
Index Date Time (GOES-16) GOES-16 Lat,Lon NOAA-20 Lat,Lon Distance(km) Time Diff (sec)
1 07/26/2021 06:23:53 -0.10, -75.22 -0.09, -75.18 5.13 80
2 07/28/2021 18:27:05 0.10, -75.25 -0.07, -75.95 80.46 80
3 07/29/2021 18:11:01 0.10, -75.27 0.95, -71.43 437.78 80
4 07/31/2021 06:32:49 -0.11, -75.29 0.20, -76.70 160.35 80
5 08/01/2021 06:14:05 -0.11, -75.31 -0.82, -72.17 357.90 80
6 08/02/2021 18:33:21 0.12, -75.34 -0.36, -77.48 244.18 80
7 08/03/2021 18:17:16 0.12, -75.36 0.67, -72.95 274.43 80
8 08/05/2021 06:39:05 -0.14, -75.39 0.48, -78.23 322.79 80
9 08/06/2021 06:20:20 -0.13, -75.41 -0.54, -73.70 195.82 80
